Simultaneous Nadir Overpasses (SNOs) Predictions

Prediction of SNOs between LANDSAT-8 and METOP-B Satellite Orbit:

Table of predicted SNOs for the next 14.0 days since TLE Epoch: 12/24/2016
Index Date (LANDSAT-8) Time (LANDSAT-8) Lat,Lon (LANDSAT-8) SZA (LANDSAT-8 ) Date (METOP-B) Time (METOP-B) Lat,Lon (METOP-B) SZA (METOP-B ) Distance(km) Time Diff (sec)
1 12/26/2016 18:45:21 -81.07, 117.66 73.79 12/26/2016 18:44:12 -81.08, 117.80 73.80 2.47 69
2 12/26/2016 19:34:46 81.10, -74.26 106.28 12/26/2016 19:34:51 81.09, -74.41 106.26 2.70 5
3 12/29/2016 14:19:35 -81.07,-175.86 73.96 12/29/2016 14:18:34 -81.07,-175.84 73.98 0.40 61
4 12/29/2016 15:09:00 81.10, -7.80 106.10 12/29/2016 15:09:12 81.10, -7.70 106.12 1.88 12
5 01/01/2017 09:53:50 -81.07,-109.41 74.20 01/01/2017 09:52:57 -81.07,-109.49 74.23 1.32 53
6 01/01/2017 10:43:15 81.10, 58.62 105.86 01/01/2017 10:43:35 81.10, 58.63 105.87 0.37 20
7 01/04/2017 05:28:05 -81.07, -43.00 74.50 01/04/2017 05:27:20 -81.07, -43.15 74.53 2.60 45
8 01/04/2017 06:17:30 81.10, 125.00 105.55 01/04/2017 06:17:58 81.10, 124.94 105.56 1.00 28
9 01/07/2017 01:02:18 -81.09, 23.73 74.82 01/07/2017 01:01:40 -81.09, 23.91 74.81 3.16 38




NCC Satellite Simultaneous Nadir Overpasses (SNOs) Prediction Service
